GALAXY 28 (G-28)

Last updated on Sun Jun 21 2026 00:03:03 GMT+0000 (Coordinated Universal Time)

1 28702U 05022A 26171.38661045 -.00000205 00000+0 00000+0 0 9994 2 28702 3.3063 78.8948 0002814 10.7889 291.0100 1.00270752 52002
UTC large
Height (km)
Speed (km/s)
/
Latitude / Longitude
Inclination (degrees)
Orbital Period (minutes)
Azimuth
Elevation
Range (km)
Doppler Factor

Next 0 passes for location: London (51.5072 / 0.1276)

No passes found over London.
GALAXY 28 (G-28)